Location: Newark
(46.7000°N, 60.6000°W)
Time: 06:08:03
(UTC+00:00)

Transit 2A Rocket - Pass Details

Date: 02 November 2020
Orbit: 588 x 914 km, 66.7° (Epoch: 27 November)

Event Time Altitude Azimuth Distance (km) Brightness Sun altitude
Rises 20:55:46 0° 325° (NW) 3,291 8.5 -2.6°
Reaches altitude 10° 20:58:18 10° 326° (NW) 2,305 7.7 -3.0°
Maximum altitude 21:03:33 89° 243° (WSW) 715 4.9 -3.9°
Drops below altitude 10° 21:08:17 10° 148° (SSE) 2,080 7.1 -4.7°
Sets 21:10:28 0° 149° (SSE) 2,945 7.9 -5.0°
